| time (UTC) | temp C | wind direction | speed KPH | gust KPH | rain 1hr cm | rain 24hr cm | rain mn cm | humidity % | barometer mb |
| 20260503211909 | 16 | 246 | 6.4 | 9.7 | 0.00 | 0.00 | 0.00 | 59 | 4297.4 |
| 20260503211406 | 17 | 240 | 14.5 | 17.7 | 0.00 | 0.00 | 0.00 | 57 | 4298.0 |
| 20260503210901 | 17 | 287 | 11.3 | 12.9 | 0.00 | 0.00 | 0.00 | 57 | 4297.5 |
| 20260503210359 | 16 | 279 | 16.1 | 16.1 | 0.00 | 0.00 | 0.00 | 57 | 4297.6 |
| 20260503205859 | 16 | 252 | 4.8 | 9.7 | 0.00 | 0.00 | 0.00 | 58 | 4297.9 |
| 20260503205356 | 17 | 263 | 9.7 | 14.5 | 0.00 | 0.00 | 0.00 | 58 | 4297.5 |
| 20260503204852 | 16 | 250 | 1.6 | 1.6 | 0.00 | 0.00 | 0.00 | 58 | 4297.6 |
| 20260503204349 | 16 | 238 | 9.7 | 12.9 | 0.00 | 0.00 | 0.00 | 60 | 4297.9 |
| 20260503203847 | 16 | 230 | 12.9 | 14.5 | 0.00 | 0.00 | 0.00 | 59 | 4298.2 |
| 20260503203344 | 16 | 224 | 11.3 | 12.9 | 0.00 | 0.00 | 0.00 | 60 | 4298.2 |
| 20260503202841 | 16 | 217 | 9.7 | 12.9 | 0.00 | 0.00 | 0.00 | 59 | 4298.2 |
| 20260503202339 | 16 | 228 | 9.7 | 12.9 | 0.00 | 0.00 | 0.00 | 59 | 4298.1 |
| 20260503201837 | 16 | 245 | 6.4 | 8.0 | 0.00 | 0.00 | 0.00 | 61 | 4298.2 |
| 20260503201333 | 15 | 199 | 6.4 | 9.7 | 0.00 | 0.00 | 0.00 | 59 | 4297.7 |
| 20260503200832 | 16 | 199 | 11.3 | 12.9 | 0.00 | 0.00 | 0.00 | 60 | 4298.3 |
| 20260503200327 | 16 | 202 | 17.7 | 20.9 | 0.00 | 0.00 | 0.00 | 60 | 4298.4 |
| 20260503195825 | 15 | 207 | 22.5 | 25.7 | 0.00 | 0.00 | 0.00 | 63 | 4298.4 |
| 20260503195321 | 15 | 252 | 14.5 | 16.1 | 0.00 | 0.00 | 0.00 | 62 | 4298.8 |
| 20260503194819 | 15 | 250 | 14.5 | 20.9 | 0.00 | 0.00 | 0.00 | 64 | 4298.5 |
| 20260503194314 | 15 | 227 | 8.0 | 9.7 | 0.00 | 0.00 | 0.00 | 65 | 4298.7 |
| 20260503193810 | 15 | 265 | 4.8 | 9.7 | 0.00 | 0.00 | 0.00 | 66 | 4298.9 |
| 20260503193307 | 15 | 272 | 8.0 | 11.3 | 0.00 | 0.00 | 0.00 | 63 | 4298.7 |
| 20260503192802 | 15 | 259 | 8.0 | 11.3 | 0.00 | 0.00 | 0.00 | 64 | 4298.8 |
| 20260503192258 | 15 | 208 | 14.5 | 16.1 | 0.00 | 0.00 | 0.00 | 63 | 4298.8 |
| 20260503191755 | 15 | 280 | 4.8 | 4.8 | 0.00 | 0.00 | 0.00 | 66 | 4298.7 |
| 20260503191252 | 15 | 294 | 6.4 | 9.7 | 0.00 | 0.00 | 0.00 | 64 | 4299.1 |
| 20260503190748 | 15 | 237 | 9.7 | 11.3 | 0.00 | 0.00 | 0.00 | 64 | 4298.6 |
| 20260503190245 | 15 | 215 | 11.3 | 14.5 | 0.00 | 0.00 | 0.00 | 64 | 4298.9 |
| 20260503185743 | 14 | 209 | 11.3 | 12.9 | 0.00 | 0.00 | 0.00 | 65 | 4299.0 |
| 20260503185238 | 14 | 227 | 16.1 | 17.7 | 0.00 | 0.00 | 0.00 | 66 | 4299.0 |
| 20260503184733 | 14 | 239 | 11.3 | 14.5 | 0.00 | 0.00 | 0.00 | 66 | 4299.1 |
| 20260503184229 | 15 | 234 | 12.9 | 16.1 | 0.00 | 0.00 | 0.00 | 66 | 4299.0 |
| 20260503183726 | 15 | 248 | 8.0 | 12.9 | 0.00 | 0.00 | 0.00 | 65 | 4299.0 |
| 20260503183223 | 14 | 245 | 8.0 | 11.3 | 0.00 | 0.00 | 0.00 | 66 | 4299.1 |
| 20260503182721 | 15 | 236 | 8.0 | 9.7 | 0.00 | 0.00 | 0.00 | 65 | 4299.0 |
| 20260503182220 | 15 | 254 | 11.3 | 14.5 | 0.00 | 0.00 | 0.00 | 67 | 4299.2 |
| 20260503181715 | 13 | 262 | 6.4 | 9.7 | 0.00 | 0.00 | 0.00 | 70 | 4298.9 |
| 20260503181213 | 14 | 258 | 12.9 | 16.1 | 0.00 | 0.00 | 0.00 | 69 | 4299.0 |
| 20260503180709 | 14 | 229 | 17.7 | 22.5 | 0.00 | 0.00 | 0.00 | 70 | 4299.2 |
| 20260503180208 | 13 | 267 | 17.7 | 20.9 | 0.00 | 0.00 | 0.00 | 70 | 4299.4 |
| 20260503175704 | 13 | 285 | 20.9 | 27.4 | 0.00 | 0.00 | 0.00 | 71 | 4299.3 |
| 20260503175202 | 13 | 212 | 8.0 | 9.7 | 0.00 | 0.00 | 0.00 | 74 | 4299.4 |
| 20260503174658 | 12 | 268 | 12.9 | 20.9 | 0.00 | 0.00 | 0.00 | 75 | 4299.3 |
| 20260503174155 | 12 | 221 | 11.3 | 12.9 | 0.00 | 0.00 | 0.00 | 78 | 4299.3 |
| 20260503173651 | 12 | 243 | 8.0 | 9.7 | 0.00 | 0.00 | 0.00 | 80 | 4299.3 |
| 20260503173147 | 12 | 211 | 12.9 | 14.5 | 0.00 | 0.00 | 0.00 | 82 | 4299.4 |
| 20260503172644 | 11 | 240 | 11.3 | 14.5 | 0.00 | 0.00 | 0.00 | 82 | 4299.3 |
| 20260503172141 | 11 | 229 | 11.3 | 14.5 | 0.00 | 0.00 | 0.00 | 85 | 4299.1 |
| 20260503171637 | 11 | 224 | 8.0 | 9.7 | 0.00 | 0.00 | 0.00 | 86 | 4299.0 |
| 20260503171135 | 11 | 225 | 11.3 | 12.9 | 0.00 | 0.00 | 0.00 | 87 | 4299.1 |
| 20260503170632 | 11 | 244 | 11.3 | 14.5 | 0.00 | 0.00 | 0.00 | 88 | 4299.0 |
| 20260503170129 | 11 | 208 | 12.9 | 14.5 | 0.00 | 0.00 | 0.00 | 88 | 4299.0 |
| 20260503150520 | 11 | 228 | 3.2 | 3.2 | 0.00 | 0.00 | 0.00 | 84 | 4298.1 |
| 20260503131413 | 10 | 222 | 0.0 | 0.0 | 0.00 | 0.00 | 0.00 | 89 | 4297.4 |
| 20260503130910 | 10 | 223 | 0.0 | 1.6 | 0.00 | 0.00 | 0.00 | 89 | 4297.4 |
| 20260503130408 | 10 | 222 | 1.6 | 3.2 | 0.00 | 0.00 | 0.00 | 88 | 4297.2 |
| 20260503110811 | 10 | 221 | 8.0 | 9.7 | 0.00 | 0.00 | 0.00 | 85 | 4296.8 |
| 20260503110308 | 10 | 223 | 4.8 | 4.8 | 0.00 | 0.00 | 0.00 | 86 | 4296.9 |
| 20260503100235 | 10 | 223 | 3.2 | 3.2 | 0.00 | 0.00 | 0.00 | 86 | 4296.8 |
| 20260503090154 | 11 | 219 | 6.4 | 8.0 | 0.00 | 0.00 | 0.00 | 88 | 4296.9 |
| 20260503081624 | 11 | 231 | 6.4 | 8.0 | 0.00 | 0.00 | 0.00 | 89 | 4297.5 |
| 20260503081121 | 11 | 269 | 3.2 | 4.8 | 0.00 | 0.00 | 0.00 | 89 | 4297.4 |
| 20260503080617 | 11 | 240 | 6.4 | 9.7 | 0.00 | 0.00 | 0.00 | 89 | 4297.4 |
| 20260503080114 | 11 | 245 | 3.2 | 3.2 | 0.00 | 0.00 | 0.00 | 89 | 4297.3 |
| 20260503072550 | 11 | 265 | 8.0 | 9.7 | 0.00 | 0.00 | 0.00 | 90 | 4297.1 |
| 20260503072048 | 11 | 209 | 4.8 | 8.0 | 0.00 | 0.00 | 0.00 | 90 | 4297.1 |
| 20260503071544 | 11 | 204 | 6.4 | 8.0 | 0.00 | 0.00 | 0.00 | 90 | 4297.2 |
| 20260503071041 | 11 | 221 | 11.3 | 12.9 | 0.00 | 0.00 | 0.00 | 90 | 4297.0 |
| 20260503070537 | 11 | 234 | 6.4 | 9.7 | 0.00 | 0.00 | 0.00 | 90 | 4297.1 |
| 20260503054951 | 10 | 267 | 0.0 | 1.6 | 0.00 | 0.00 | 0.00 | 94 | 4296.7 |
| 20260503054447 | 10 | 292 | 3.2 | 3.2 | 0.00 | 0.00 | 0.00 | 94 | 4296.6 |
| 20260503053945 | 10 | 252 | 0.0 | 0.0 | 0.00 | 0.00 | 0.00 | 94 | 4296.8 |
| 20260503053443 | 10 | 258 | 0.0 | 0.0 | 0.00 | 0.00 | 0.00 | 95 | 4296.4 |
| 20260503052939 | 10 | 283 | 0.0 | 0.0 | 0.00 | 0.00 | 0.00 | 95 | 4296.3 |
| 20260503052437 | 10 | 301 | 0.0 | 0.0 | 0.00 | 0.00 | 0.00 | 95 | 4296.6 |
| 20260503051932 | 10 | 282 | 0.0 | 0.0 | 0.00 | 0.00 | 0.00 | 94 | 4296.5 |
| 20260503051429 | 10 | 273 | 0.0 | 0.0 | 0.00 | 0.00 | 0.00 | 94 | 4296.6 |
| 20260503050926 | 10 | 276 | 0.0 | 0.0 | 0.00 | 0.00 | 0.00 | 94 | 4296.7 |
| 20260503050422 | 10 | 269 | 0.0 | 0.0 | 0.00 | 0.00 | 0.00 | 94 | 4296.7 |
| 20260503045920 | 10 | 303 | 0.0 | 0.0 | 0.00 | 0.00 | 0.00 | 94 | 4296.8 |
| 20260503045417 | 10 | 257 | 0.0 | 0.0 | 0.00 | 0.00 | 0.00 | 94 | 4296.5 |
| 20260503044914 | 10 | 287 | 0.0 | 0.0 | 0.00 | 0.00 | 0.00 | 93 | 4296.4 |
| 20260503044410 | 10 | 274 | 0.0 | 0.0 | 0.00 | 0.00 | 0.00 | 93 | 4296.4 |
| 20260503043908 | 10 | 280 | 0.0 | 0.0 | 0.00 | 0.00 | 0.00 | 93 | 4296.5 |
| 20260503043404 | 10 | 295 | 0.0 | 0.0 | 0.00 | 0.00 | 0.00 | 93 | 4296.3 |
| 20260503042901 | 10 | 346 | 0.0 | 0.0 | 0.00 | 0.00 | 0.00 | 92 | 4296.1 |
| 20260503042357 | 10 | 311 | 0.0 | 0.0 | 0.00 | 0.00 | 0.00 | 92 | 4296.1 |
| 20260503041853 | 10 | 307 | 1.6 | 3.2 | 0.00 | 0.00 | 0.00 | 92 | 4296.2 |
| 20260503041351 | 10 | 293 | 0.0 | 1.6 | 0.00 | 0.00 | 0.00 | 91 | 4295.9 |
| 20260503040848 | 10 | 260 | 0.0 | 0.0 | 0.00 | 0.00 | 0.00 | 91 | 4295.8 |
| 20260503040346 | 10 | 269 | 0.0 | 0.0 | 0.00 | 0.00 | 0.00 | 91 | 4295.8 |
| 20260503035842 | 11 | 270 | 0.0 | 0.0 | 0.00 | 0.00 | 0.00 | 91 | 4296.0 |
| 20260503035339 | 11 | 288 | 1.6 | 4.8 | 0.00 | 0.00 | 0.00 | 90 | 4296.1 |
| 20260503034837 | 11 | 232 | 0.0 | 0.0 | 0.00 | 0.00 | 0.00 | 90 | 4296.0 |
| 20260503034334 | 11 | 214 | 8.0 | 9.7 | 0.00 | 0.00 | 0.00 | 90 | 4296.1 |
| 20260503033831 | 11 | 232 | 3.2 | 3.2 | 0.00 | 0.00 | 0.00 | 90 | 4296.1 |
| 20260503033329 | 11 | 243 | 0.0 | 0.0 | 0.00 | 0.00 | 0.00 | 89 | 4296.1 |
| 20260503032826 | 11 | 226 | 1.6 | 3.2 | 0.00 | 0.00 | 0.00 | 88 | 4296.0 |
| 20260503032325 | 11 | 263 | 3.2 | 4.8 | 0.00 | 0.00 | 0.00 | 88 | 4295.9 |
| 20260503031822 | 11 | 296 | 3.2 | 4.8 | 0.00 | 0.00 | 0.00 | 87 | 4295.9 |
| 20260503031320 | 11 | 271 | 4.8 | 8.0 | 0.00 | 0.00 | 0.00 | 86 | 4295.5 |
| 20260503030816 | 12 | 261 | 3.2 | 8.0 | 0.00 | 0.00 | 0.00 | 86 | 4295.9 |
| 20260503030313 | 12 | 317 | 6.4 | 9.7 | 0.00 | 0.00 | 0.00 | 85 | 4295.6 |
| 20260503025809 | 12 | 281 | 8.0 | 8.0 | 0.00 | 0.00 | 0.00 | 84 | 4295.5 |
| 20260503025307 | 12 | 250 | 1.6 | 3.2 | 0.00 | 0.00 | 0.00 | 83 | 4295.3 |
| 20260503024804 | 13 | 288 | 6.4 | 9.7 | 0.00 | 0.00 | 0.00 | 82 | 4295.1 |
| 20260503024300 | 13 | 274 | 4.8 | 4.8 | 0.00 | 0.00 | 0.00 | 81 | 4295.4 |
| 20260503023758 | 13 | 284 | 9.7 | 12.9 | 0.00 | 0.00 | 0.00 | 80 | 4295.4 |
| 20260503023255 | 13 | 307 | 6.4 | 8.0 | 0.00 | 0.00 | 0.00 | 78 | 4295.5 |
| 20260503022751 | 14 | 295 | 6.4 | 8.0 | 0.00 | 0.00 | 0.00 | 77 | 4295.5 |
| 20260503022251 | 15 | 294 | 3.2 | 4.8 | 0.00 | 0.00 | 0.00 | 76 | 4295.3 |
| 20260503021748 | 15 | 269 | 4.8 | 8.0 | 0.00 | 0.00 | 0.00 | 74 | 4295.3 |
| 20260503021243 | 15 | 264 | 3.2 | 4.8 | 0.00 | 0.00 | 0.00 | 73 | 4295.3 |
| 20260503020742 | 15 | 290 | 6.4 | 9.7 | 0.00 | 0.00 | 0.00 | 73 | 4295.3 |
| 20260503020239 | 16 | 316 | 4.8 | 8.0 | 0.00 | 0.00 | 0.00 | 72 | 4295.2 |
| 20260503015735 | 16 | 280 | 4.8 | 8.0 | 0.00 | 0.00 | 0.00 | 71 | 4295.2 |
| 20260503015232 | 16 | 317 | 6.4 | 9.7 | 0.00 | 0.00 | 0.00 | 69 | 4295.1 |
| 20260503014728 | 16 | 280 | 6.4 | 9.7 | 0.00 | 0.00 | 0.00 | 69 | 4295.1 |
| 20260503014226 | 17 | 302 | 9.7 | 14.5 | 0.00 | 0.00 | 0.00 | 69 | 4295.4 |
| 20260503013723 | 17 | 294 | 4.8 | 4.8 | 0.00 | 0.00 | 0.00 | 67 | 4295.0 |
| 20260503013221 | 17 | 270 | 6.4 | 9.7 | 0.00 | 0.00 | 0.00 | 66 | 4295.3 |
| 20260503012718 | 18 | 252 | 9.7 | 11.3 | 0.00 | 0.00 | 0.00 | 65 | 4295.1 |
| 20260503012215 | 19 | 293 | 8.0 | 12.9 | 0.00 | 0.00 | 0.00 | 63 | 4295.1 |
| 20260503011711 | 19 | 265 | 3.2 | 3.2 | 0.00 | 0.00 | 0.00 | 61 | 4295.1 |
| 20260503011209 | 20 | 279 | 3.2 | 3.2 | 0.00 | 0.00 | 0.00 | 63 | 4295.3 |
| 20260503010705 | 20 | 304 | 3.2 | 4.8 | 0.00 | 0.00 | 0.00 | 60 | 4295.1 |
| 20260503010202 | 20 | 258 | 3.2 | 4.8 | 0.00 | 0.00 | 0.00 | 61 | 4295.0 |
| 20260503005659 | 20 | 262 | 6.4 | 11.3 | 0.00 | 0.00 | 0.00 | 60 | 4295.1 |
| 20260503005156 | 21 | 260 | 3.2 | 4.8 | 0.00 | 0.00 | 0.00 | 58 | 4295.0 |
| 20260503004652 | 21 | 215 | 3.2 | 3.2 | 0.00 | 0.00 | 0.00 | 59 | 4295.2 |
| 20260503004151 | 21 | 212 | 3.2 | 3.2 | 0.00 | 0.00 | 0.00 | 57 | 4295.0 |
| 20260503003648 | 21 | 252 | 4.8 | 9.7 | 0.00 | 0.00 | 0.00 | 58 | 4294.9 |
| 20260503003145 | 21 | 250 | 4.8 | 4.8 | 0.00 | 0.00 | 0.00 | 57 | 4295.2 |
| 20260503002641 | 21 | 267 | 4.8 | 8.0 | 0.00 | 0.00 | 0.00 | 56 | 4295.2 |
| 20260503002138 | 21 | 269 | 6.4 | 9.7 | 0.00 | 0.00 | 0.00 | 56 | 4295.1 |
| 20260503001634 | 21 | 217 | 4.8 | 4.8 | 0.00 | 0.00 | 0.00 | 56 | 4295.0 |
| 20260503001131 | 21 | 203 | 4.8 | 8.0 | 0.00 | 0.00 | 0.00 | 56 | 4294.9 |
| 20260503000629 | 21 | 255 | 9.7 | 11.3 | 0.00 | 0.00 | 0.00 | 57 | 4295.1 |
| 20260503000126 | 22 | 247 | 4.8 | 8.0 | 0.00 | 0.00 | 0.00 | 56 | 4294.9 |
| 20260502235622 | 22 | 266 | 4.8 | 4.8 | 0.00 | 0.00 | 0.00 | 55 | 4294.7 |
| 20260502235121 | 21 | 238 | 9.7 | 11.3 | 0.00 | 0.00 | 0.00 | 57 | 4294.9 |
| 20260502234616 | 22 | 291 | 4.8 | 9.7 | 0.00 | 0.00 | 0.00 | 55 | 4295.0 |
| 20260502234114 | 22 | 231 | 6.4 | 8.0 | 0.00 | 0.00 | 0.00 | 54 | 4294.9 |
| 20260502233609 | 22 | 260 | 4.8 | 4.8 | 0.00 | 0.00 | 0.00 | 55 | 4295.0 |
| 20260502233107 | 22 | 284 | 6.4 | 11.3 | 0.00 | 0.00 | 0.00 | 54 | 4295.2 |
| 20260502232602 | 21 | 294 | 3.2 | 4.8 | 0.00 | 0.00 | 0.00 | 55 | 4295.0 |
| 20260502232100 | 21 | 220 | 6.4 | 9.7 | 0.00 | 0.00 | 0.00 | 56 | 4295.1 |
| 20260502231556 | 21 | 260 | 4.8 | 9.7 | 0.00 | 0.00 | 0.00 | 57 | 4295.1 |
| 20260502231055 | 21 | 245 | 9.7 | 11.3 | 0.00 | 0.00 | 0.00 | 56 | 4295.3 |
| 20260502230553 | 21 | 186 | 8.0 | 8.0 | 0.00 | 0.00 | 0.00 | 54 | 4295.5 |
| 20260502230051 | 21 | 209 | 6.4 | 9.7 | 0.00 | 0.00 | 0.00 | 58 | 4295.4 |
| 20260502225546 | 21 | 206 | 11.3 | 12.9 | 0.00 | 0.00 | 0.00 | 59 | 4295.7 |
| 20260502225043 | 21 | 228 | 14.5 | 16.1 | 0.00 | 0.00 | 0.00 | 57 | 4295.5 |
| 20260502224539 | 22 | 209 | 9.7 | 11.3 | 0.00 | 0.00 | 0.00 | 55 | 4295.7 |
| 20260502224037 | 21 | 225 | 4.8 | 9.7 | 0.00 | 0.00 | 0.00 | 54 | 4295.7 |
| 20260502223534 | 22 | 221 | 19.3 | 24.1 | 0.00 | 0.00 | 0.00 | 55 | 4295.9 |
| 20260502223033 | 22 | 278 | 9.7 | 11.3 | 0.00 | 0.00 | 0.00 | 52 | 4295.9 |
| 20260502222529 | 22 | 222 | 9.7 | 12.9 | 0.00 | 0.00 | 0.00 | 54 | 4295.9 |
| 20260502222026 | 22 | 273 | 6.4 | 8.0 | 0.00 | 0.00 | 0.00 | 55 | 4296.1 |
| 20260502221521 | 22 | 287 | 3.2 | 4.8 | 0.00 | 0.00 | 0.00 | 57 | 4295.9 |
| 20260502221019 | 22 | 260 | 6.4 | 8.0 | 0.00 | 0.00 | 0.00 | 56 | 4296.0 |
| 20260502220514 | 22 | 246 | 4.8 | 8.0 | 0.00 | 0.00 | 0.00 | 57 | 4296.2 |
| 20260502220011 | 21 | 259 | 4.8 | 8.0 | 0.00 | 0.00 | 0.00 | 58 | 4296.4 |
| 20260502215509 | 22 | 268 | 16.1 | 17.7 | 0.00 | 0.00 | 0.00 | 58 | 4296.3 |
| 20260502215005 | 22 | 217 | 8.0 | 9.7 | 0.00 | 0.00 | 0.00 | 57 | 4296.2 |
| 20260502214502 | 22 | 269 | 3.2 | 4.8 | 0.00 | 0.00 | 0.00 | 59 | 4296.4 |
| 20260502214000 | 21 | 173 | 8.0 | 9.7 | 0.00 | 0.00 | 0.00 | 60 | 4296.5 |
| 20260502213456 | 21 | 199 | 14.5 | 17.7 | 0.00 | 0.00 | 0.00 | 61 | 4296.6 |
| 20260502212954 | 22 | 228 | 4.8 | 8.0 | 0.00 | 0.00 | 0.00 | 59 | 4296.5 |
| 20260502212453 | 22 | 222 | 14.5 | 17.7 | 0.00 | 0.00 | 0.00 | 57 | 4296.6 |